H1 CPF 2 NER 2023 4 23 9 113 01 glonass134 H2 1407501 9134 40315 2023 4 23 0 0 0 2023 4 26 23 45 0 900 1 1 0 0 0 1 H9 10 0 60057 0.00000 0 -21115115.648 -11730296.272 -8059727.522 10 0 60057 900.00000 0 -20017705.808 -11296396.887 -10959939.350 10 0 60057 1800.00000 0 -18557745.469 -10858322.335 -13646152.669 10 0 60057 2700.00000 0 -16760491.829 -10468795.451 -16065977.562 10 0 60057 3600.00000 0 -14662976.259 -10175722.224 -18172277.575 10 0 60057 4500.00000 0 -12312643.683 -10020000.744 -19924095.096 10 0 60057 5400.00000 0 -9765565.019 -10033646.014 -21287449.312 10 0 60057 6300.00000 0 -7084298.878 -10238310.520 -22235991.276 10 0 60057 7200.00000 0 -4335493.272 -10644262.992 -22751504.023 10 0 60057 8100.00000 0 -1587328.494 -11249867.698 -22824239.229 10 0 60057 9000.00000 0 1093091.634 -12041585.013 -22453085.386 10 0 60057 9900.00000 0 3642291.518 -12994491.669 -21645566.028 10 0 60057 10800.00000 0 6002813.136 -14073297.142 -20417669.824 10 0 60057 11700.00000 0 8125345.092 -15233811.878 -18793517.591 10 0 60057 12600.00000 0 9970504.909 -16424804.349 -16804874.214 10 0 60057 13500.00000 0 11510203.104 -17590168.036 -14490516.233 10 0 60057 14400.00000 0 12728535.281 -18671306.944 -11895468.257 10 0 60057 15300.00000 0 13622168.154 -19609639.522 -9070123.644 10 0 60057 16200.00000 0 14200206.570 -20349116.535 -6069266.734 10 0 60057 17100.00000 0 14483549.775 -20838648.064 -2951015.434 10 0 60057 18000.00000 0 14503766.143 -21034338.865 224295.743 10 0 60057 18900.00000 0 14301535.232 -20901439.700 3395271.253 10 0 60057 19800.00000 0 13924723.475 -20415933.908 6500627.332 10 0 60057 20700.00000 0 13426174.595 -19565693.663 9480360.480 10 0 60057 21600.00000 0 12861307.183 -18351157.990 12276890.337 10 0 60057 22500.00000 0 12285619.602 -16785504.083 14836156.341 10 0 60057 23400.00000 0 11752205.926 -14894304.136 17108648.325 10 0 60057 24300.00000 0 11309386.096 -12714680.704 19050352.565 10 0 60057 25200.00000 0 10998548.757 -10293993.911 20623596.166 10 0 60057 26100.00000 0 10852296.668 -7688112.814 21797774.355 10 0 60057 27000.00000 0 10892972.318 -4959340.157 22549947.163 10 0 60057 27900.00000 0 11131626.087 -2174073.922 22865293.978 10 0 60057 28800.00000 0 11567471.356 599699.821 22737416.708 10 0 60057 29700.00000 0 12187851.141 3294981.067 22168484.659 10 0 60057 30600.00000 0 12968719.896 5848291.957 21169216.832 10 0 60057 31500.00000 0 13875622.727 8202070.607 19758700.066 10 0 60057 32400.00000 0 14865133.393 10306823.631 17964044.403 10 0 60057 33300.00000 0 15886692.909 12122947.596 15819880.140 10 0 60057 34200.00000 0 16884773.080 13622142.643 13367704.231 10 0 60057 35100.00000 0 17801274.866 14788358.174 10655087.001 10 0 60057 36000.00000 0 18578060.588 15618229.752 7734753.339 10 0 60057 36900.00000 0 19159512.333 16120987.793 4663555.697 10 0 60057 37800.00000 0 19495006.975 16317841.148 1501359.008 10 0 60057 38700.00000 0 19541200.973 16240861.373 -1690139.893 10 0 60057 39600.00000 0 19264025.811 15931415.257 -4848633.826 10 0 60057 40500.00000 0 18640307.009 15438213.024 -7912442.025 10 0 60057 41400.00000 0 17658935.810 14815056.540 -10821735.737 10 0 60057 42300.00000 0 16321542.035 14118385.079 -13519726.422 10 0 60057 43200.00000 0 14642638.282 13404724.966 -15953791.264 10 0 60057 44100.00000 0 12649228.719 12728153.445 -18076512.327 10 0 60057 45000.00000 0 10379898.897 12137886.159 -19846607.822 10 0 60057 45900.00000 0 7883425.420 11676091.786 -21229736.796 10 0 60057 46800.00000 0 5216964.702 11376027.010 -22199161.604 10 0 60057 47700.00000 0 2443897.761 11260570.663 -22736255.937 10 0 60057 48600.00000 0 -368577.833 11341218.193 -22830849.674 10 0 60057 49500.00000 0 -3152007.711 11617577.578 -22481405.424 10 0 60057 50400.00000 0 -5839285.226 12077386.164 -21695025.052 10 0 60057 51300.00000 0 -8367192.715 12697045.733 -20487287.922 10 0 60057 52200.00000 0 -10678774.887 13442651.298 -18881925.723 10 0 60057 53100.00000 0 -12725447.289 14271468.527 -16910341.750 10 0 60057 54000.00000 0 -14468754.442 15133796.215 -14610985.270 10 0 60057 54900.00000 0 -15881707.209 15975134.518 -12028594.024 10 0 60057 55800.00000 0 -16949646.593 16738567.343 -9213320.190 10 0 60057 56700.00000 0 -17670600.979 17367258.826 -6219756.997 10 0 60057 57600.00000 0 -18055124.683 17806959.480 -3105884.737 10 0 60057 58500.00000 0 -18125627.006 18008417.606 68043.768 10 0 60057 59400.00000 0 -17915221.752 17929595.635 3240657.387 10 0 60057 60300.00000 0 -17466146.694 17537599.468 6350639.194 10 0 60057 61200.00000 0 -16827819.903 16810240.859 9337895.683 10 0 60057 62100.00000 0 -16054614.320 15737167.826 12144701.432 10 0 60057 63000.00000 0 -15203443.355 14320515.862 14716798.500 10 0 60057 63900.00000 0 -14331257.774 12575052.215 17004430.728 10 0 60057 64800.00000 0 -13492557.611 10527806.075 18963294.327 10 0 60057 65700.00000 0 -12737022.172 8217198.307 20555387.611 10 0 60057 66600.00000 0 -12107356.422 5691704.668 21749744.343 10 0 60057 67500.00000 0 -11637443.332 3008105.413 22523037.072 10 0 60057 68400.00000 0 -11350879.440 229391.081 22860038.858 10 0 60057 69300.00000 0 -11259955.493 -2577591.462 22753934.001 10 0 60057 70200.00000 0 -11365125.940 -5344657.680 22206470.772 10 0 60057 71100.00000 0 -11654991.163 -8004866.387 21227951.702 10 0 60057 72000.00000 0 -12106795.190 -10495057.520 19837059.738 10 0 60057 72900.00000 0 -12687420.188 -12758242.032 18060521.505 10 0 60057 73800.00000 0 -13354837.990 -14745744.601 15932611.954 10 0 60057 74700.00000 0 -14059959.350 -16419009.288 13494507.948 10 0 60057 75600.00000 0 -14748804.150 -17750991.698 10793501.557 10 0 60057 76500.00000 0 -15364901.419 -18727078.094 7882087.075 10 0 60057 77400.00000 0 -15851817.378 -19345491.527 4816938.942 10 0 60057 78300.00000 0 -16155703.375 -19617166.819 1657800.538 10 0 60057 79200.00000 0 -16227753.959 -19565099.001 -1533693.697 10 0 60057 80100.00000 0 -16026468.576 -19223192.602 -4695238.348 10 0 60057 81000.00000 0 -15519618.426 -18634661.073 -7765093.636 10 0 60057 81900.00000 0 -14685832.578 -17850045.282 -10683312.158 10 0 60057 82800.00000 0 -13515733.849 -16924936.779 -13392929.526 10 0 60057 83700.00000 0 -12012574.629 -15917504.351 -15841093.533 10 0 60057 84600.00000 0 -10192344.563 -14885930.797 -17980108.074 10 0 60057 85500.00000 0 -8083345.059 -13885870.404 -19768370.192 10 0 60058 0.00000 0 -5725248.833 -12968036.353 -21171181.281 10 0 60058 900.00000 0 -3167683.257 -12176020.425 -22161417.349 10 0 60058 1800.00000 0 -468400.976 -11544438.540 -22720044.121 10 0 60058 2700.00000 0 2308888.906 -11097478.092 -22836470.635 10 0 60058 3600.00000 0 5096934.632 -10847908.313 -22508733.989 10 0 60058 4500.00000 0 7827500.679 -10796592.968 -21743514.231 10 0 60058 5400.00000 0 10433964.976 -10932523.757 -20555980.786 10 0 60058 6300.00000 0 12853847.036 -11233370.630 -18969475.131 10 0 60058 7200.00000 0 15031163.040 -11666523.566 -17015037.469 10 0 60058 8100.00000 0 16918511.746 -12190579.945 -14730787.880 10 0 60058 9000.00000 0 18478806.701 -12757213.357 -12161174.909 10 0 60058 9900.00000 0 19686585.300 -13313344.163 -9356106.825 10 0 60058 10800.00000 0 20528842.885 -13803520.035 -6369982.662 10 0 60058 11700.00000 0 21005359.833 -14172406.357 -3260641.717 10 0 60058 12600.00000 0 21128510.376 -14367282.204 -88251.526 10 0 60058 13500.00000 0 20922563.212 -14340437.740 3085844.897 10 0 60058 14400.00000 0 20422504.702 -14051373.276 6200301.113 10 0 60058 15300.00000 0 19672434.708 -13468708.488 9194937.116 10 0 60058 16200.00000 0 18723602.467 -12571722.354 12011885.656 10 0 60058 17100.00000 0 17632164.329 -11351459.524 14596694.302 10 0 60058 18000.00000 0 16456756.369 -9811356.482 16899363.367 10 0 60058 18900.00000 0 15255982.257 -7967360.402 18875301.022 10 0 60058 19800.00000 0 14085920.157 -5847534.183 20486178.353 10 0 60058 20700.00000 0 12997751.627 -3491161.912 21700668.757 10 0 60058 21600.00000 0 12035610.664 -947389.362 22495057.945 10 0 60058 22500.00000 0 11234742.176 1726546.982 22853712.853 10 0 60058 23400.00000 0 10620046.810 4467431.818 22769399.955 10 0 60058 24300.00000 0 10205073.503 7208439.107 22243445.857 10 0 60058 25200.00000 0 9991502.944 9881660.577 21285735.627 10 0 60058 26100.00000 0 9969145.093 12420691.584 19914546.994 10 0 60058 27000.00000 0 10116452.636 14763168.102 18156221.529 10 0 60058 27900.00000 0 10401530.626 16853149.780 16044676.953 10 0 60058 28800.00000 0 10783601.517 18643249.417 13620767.925 10 0 60058 29700.00000 0 11214865.069 20096419.055 10931505.951 10 0 60058 30600.00000 0 11642675.300 21187316.635 8029152.263 10 0 60058 31500.00000 0 12011942.333 21903194.321 4970200.683 10 0 60058 32400.00000 0 12267656.615 22244269.758 1814270.346 10 0 60058 33300.00000 0 12357426.965 22223563.489 -1377069.416 10 0 60058 34200.00000 0 12233922.627 21866208.762 -4541517.634 10 0 60058 35100.00000 0 11857113.233 21208262.977 -7617278.065 10 0 60058 36000.00000 0 11196208.995 20295071.714 -10544287.031 10 0 60058 36900.00000 0 10231216.364 19179255.931 -13265406.437 10 0 60058 37800.00000 0 8954041.136 17918409.284 -15727556.559 10 0 60058 38700.00000 0 7369090.754 16572605.007 -17882764.754 10 0 60058 39600.00000 0 5493349.379 15201819.785 -19689108.288 10 0 60058 40500.00000 0 3355922.286 13863385.137 -21111532.304 10 0 60058 41400.00000 0 997068.906 12609575.052 -22122526.961 10 0 60058 42300.00000 0 -1533234.195 11485432.069 -22702651.140 10 0 60058 43200.00000 0 -4177139.396 10526923.052 -22840893.663 10 0 60058 44100.00000 0 -6871105.133 9759501.158 -22534866.518 10 0 60058 45000.00000 0 -9548312.472 9197132.693 -21790828.047 10 0 60058 45900.00000 0 -12141220.177 8841827.423 -20623537.515 10 0 60058 46800.00000 0 -14584152.067 8683689.418 -19055945.624 10 0 60058 47700.00000 0 -16815809.756 8701483.596 -17118728.574 10 0 60058 48600.00000 0 -18781607.532 8863691.546 -14849676.041 10 0 60058 49500.00000 0 -20435734.101 9130010.062 -12292945.904 10 0 60058 50400.00000 0 -21742857.539 9453227.630 -9498200.867 10 0 60058 51300.00000 0 -22679404.871 9781398.828 -6519643.957 10 0 60058 52200.00000 0 -23234365.483 10060224.636 -3414971.558 10 0 60058 53100.00000 0 -23409587.113 10235538.501 -244263.884 10 0 60058 54000.00000 0 -23219554.141 10255794.006 2931166.284 10 0 60058 54900.00000 0 -22690659.042 10074450.278 6049945.257 10 0 60058 55800.00000 0 -21859998.502 9652155.723 9051808.912 10 0 60058 56700.00000 0 -20773744.879 8958639.093 11878750.657 10 0 60058 57600.00000 0 -19485160.883 7974228.934 14476126.143 10 0 60058 58500.00000 0 -18052339.719 6690937.732 16793694.761 10 0 60058 59400.00000 0 -16535763.944 5113064.738 18786579.199 10 0 60058 60300.00000 0 -14995783.579 3257290.990 20416125.761 10 0 60058 61200.00000 0 -13490117.274 1152260.647 21650649.730 10 0 60058 62100.00000 0 -12071479.479 -1162336.450 22466051.966 10 0 60058 63000.00000 0 -10785431.562 -3637145.727 22846294.960 10 0 60058 63900.00000 0 -9668546.004 -6214938.055 22783728.685 10 0 60058 64800.00000 0 -8746960.213 -8832737.877 22279259.039 10 0 60058 65700.00000 0 -8035380.881 -11424203.741 21342354.177 10 0 60058 66600.00000 0 -7536581.518 -13922164.603 19990886.751 10 0 60058 67500.00000 0 -7241415.526 -16261208.098 18250813.016 10 0 60058 68400.00000 0 -7129345.816 -18380213.894 16155692.772 10 0 60058 69300.00000 0 -7169470.198 -20224726.549 13746057.390 10 0 60058 70200.00000 0 -7322000.595 -21749068.045 11068636.352 10 0 60058 71100.00000 0 -7540134.442 -22918100.360 8175456.014 10 0 60058 72000.00000 0 -7772239.319 -23708562.490 5122827.479 10 0 60058 72900.00000 0 -7964257.728 -24109924.040 1970243.261 10 0 60058 73800.00000 0 -8062228.818 -24124717.881 -1220795.028 10 0 60058 74700.00000 0 -8014818.086 -23768336.735 -4387993.682 10 0 60058 75600.00000 0 -7775745.351 -23068301.724 -7469503.020 10 0 60058 76500.00000 0 -7306005.237 -22063033.962 -10405146.264 10 0 60058 77400.00000 0 -6575783.375 -20800181.951 -13137614.892 10 0 60058 78300.00000 0 -5565984.707 -19334576.892 -15613604.989 10 0 60058 79200.00000 0 -4269307.264 -17725904.112 -17784870.621 10 0 60058 80100.00000 0 -2690814.697 -16036190.868 -19609172.352 10 0 60058 81000.00000 0 -847982.727 -14327218.290 -21051101.754 10 0 60058 81900.00000 0 1229782.558 -12657967.905 -22082765.792 10 0 60058 82800.00000 0 3502133.887 -11082211.016 -22684318.304 10 0 60058 83700.00000 0 5919237.243 -9646342.277 -22844329.365 10 0 60058 84600.00000 0 8423629.828 -8387547.677 -22559986.818 10 0 60058 85500.00000 0 10952403.059 -7332382.234 -21837127.785 10 0 60059 0.00000 0 13439618.734 -6495814.892 -20690101.522 10 0 60059 900.00000 0 15818858.800 -5880777.538 -19141467.323 10 0 60059 1800.00000 0 18025799.513 -5478235.148 -17221536.591 10 0 60059 2700.00000 0 20000708.052 -5267769.673 -14967767.249 10 0 60059 3600.00000 0 21690755.675 -5218651.513 -12424024.681 10 0 60059 4500.00000 0 23052054.120 -5291350.801 -9639723.687 10 0 60059 5400.00000 0 24051332.375 -5439423.277 -6668868.492 10 0 60059 6300.00000 0 24667186.049 -5611690.319 -3569009.362 10 0 60059 7200.00000 0 24890849.314 -5754620.869 -400135.666 10 0 60059 8100.00000 0 24726459.302 -5814815.116 2776473.777 10 0 60059 9000.00000 0 24190803.435 -5741485.902 5899421.804 10 0 60059 9900.00000 0 23312561.352 -5488834.188 8908363.865 10 0 60059 10800.00000 0 22131073.616 -5018219.554 11745157.527 10 0 60059 11700.00000 0 20694688.463 -4300035.127 14354969.729 10 0 60059 12600.00000 0 19058754.994 -3315208.522 16687321.780 10 0 60059 13500.00000 0 17283345.378 -2056265.666 18697053.335 10 0 60059 14400.00000 0 15430799.572 -527912.028 20345187.935 10 0 60059 15300.00000 0 13563193.272 1252894.573 21599684.336 10 0 60059 16200.00000 0 11739832.970 3257384.860 22436059.703 10 0 60059 17100.00000 0 10014881.041 5445917.038 22837872.785 10 0 60059 18000.00000 0 8435208.759 7769377.783 22797057.303 10 0 60059 18900.00000 0 7038566.163 10170990.153 22314098.236 10 0 60059 19800.00000 0 5852145.049 12588456.308 21398046.161 10 0 60059 20700.00000 0 4891595.591 14956348.499 20066367.554 10 0 60059 21600.00000 0 4160538.626 17208650.866 18344631.840 10 0 60059 22500.00000 0 3650595.253 19281347.402 16266039.032 10 0 60059 23400.00000 0 3341933.786 21114948.511 13870795.022 10 0 60059 24300.00000 0 3204312.259 22656850.158 11205344.807 10 0 60059 25200.00000 0 3198573.365 23863425.750 8321477.198 10 0 60059 26100.00000 0 3278529.017 24701761.312 5275317.724 10 0 60059 27000.00000 0 3393154.443 25150959.152 2126229.305 10 0 60059 27900.00000 0 3488997.841 25202953.245 -1064357.178 10 0 60059 28800.00000 0 3512701.671 24862800.344 -4234158.286 10 0 60059 29700.00000 0 3413526.349 24148433.423 -7321273.771 10 0 60059 30600.00000 0 3145766.639 23089887.439 -10265416.445 10 0 60059 31500.00000 0 2670955.515 21728030.360 -13009109.799 10 0 60059 32400.00000 0 1959759.496 20112853.987 -15498827.870 10 0 60059 33300.00000 0 993482.992 18301398.154 -17686053.274 10 0 60059 34200.00000 0 -234883.629 16355397.607 -19528231.426 10 0 60059 35100.00000 0 -1720117.504 14338752.448 -20989601.600 10 0 60059 36000.00000 0 -3444741.688 12314930.139 -22041888.578 10 0 60059 36900.00000 0 -5379529.232 10344409.291 -22664841.910 10 0 60059 37800.00000 0 -7484511.094 8482272.883 -22846613.399 10 0 60059 38700.00000 0 -9710444.780 6776051.395 -22583966.913 10 0 60059 39600.00000 0 -12000681.259 5263904.968 -21882318.190 10 0 60059 40500.00000 0 -14293351.332 3973218.699 -20755605.695 10 0 60059 41400.00000 0 -16523779.684 2919667.211 -19225996.819 10 0 60059 42300.00000 0 -18627025.774 2106784.672 -17323436.739 10 0 60059 43200.00000 0 -20540446.055 1526055.033 -15085050.060 10 0 60059 44100.00000 0 -22206171.577 1157515.565 -12554407.865 10 0 60059 45000.00000 0 -23573398.985 970845.574 -9780675.087 10 0 60059 45900.00000 0 -24600401.118 926892.216 -6817655.070 10 0 60059 46800.00000 0 -25256175.181 979567.608 -3722749.784 10 0 60059 47700.00000 0 -25521661.669 1078036.423 -555855.548 10 0 60059 48600.00000 0 -25390484.871 1169101.491 2621785.049 10 0 60059 49500.00000 0 -24869185.611 1199687.165 5748753.701 10 0 60059 50400.00000 0 -23976937.707 1119316.577 8764627.830 10 0 60059 51300.00000 0 -22744760.411 882479.297 11611131.597 10 0 60059 52200.00000 0 -21214259.710 450790.633 14233245.676 10 0 60059 53100.00000 0 -19435950.387 -205147.564 16580255.690 10 0 60059 54000.00000 0 -17467227.650 -1104262.541 18606720.530 10 0 60059 54900.00000 0 -15370071.283 -2253965.400 20273343.054 10 0 60059 55800.00000 0 -13208576.130 -3649589.789 21547727.312 10 0 60059 56700.00000 0 -11046409.778 -5274339.788 22405008.286 10 0 60059 57600.00000 0 -8944301.436 -7099751.563 22828342.150 10 0 60059 58500.00000 0 -6957665.028 -9086652.395 22809247.200 10 0 60059 59400.00000 0 -5134454.347 -11186580.221 22347787.977 10 0 60059 60300.00000 0 -3513339.064 -13343607.714 21452597.629 10 0 60059 61200.00000 0 -2122277.661 -15496497.731 20140736.288 10 0 60059 62100.00000 0 -977547.386 -17581102.673 18437386.067 10 0 60059 63000.00000 0 -83272.681 -19532909.317 16375386.402 10 0 60059 63900.00000 0 568527.020 -21289623.622 13994616.608 10 0 60059 64800.00000 0 997371.030 -22793687.340 11341235.808 10 0 60059 65700.00000 0 1233255.634 -23994620.113 8466793.592 10 0 60059 66600.00000 0 1315141.084 -24851087.206 5427227.989 10 0 60059 67500.00000 0 1289051.444 -25332603.969 2281770.188 10 0 60059 68400.00000 0 1205868.453 -25420803.121 -908222.020 10 0 60059 69300.00000 0 1118914.381 -25110209.398 -4080477.968 10 0 60059 70200.00000 0 1081428.433 -24408487.247 -7173049.525 10 0 60059 71100.00000 0 1144046.243 -23336150.034 -10125541.902 10 0 60059 72000.00000 0 1352392.096 -21925742.716 -12880313.510 10 0 60059 72900.00000 0 1744888.610 -20220532.813 -15383619.280 10 0 60059 73800.00000 0 2350879.068 -18272765.877 -17586673.292 10 0 60059 74700.00000 0 3189143.727 -16141560.424 -19446608.580 10 0 60059 75600.00000 0 4266874.085 -13890532.552 -20927314.663 10 0 60059 76500.00000 0 5579149.014 -11585251.631 -22000136.366 10 0 60059 77400.00000 0 7108934.764 -9290635.114 -22644420.802 10 0 60059 78300.00000 0 8827608.331 -7068392.335 -22847902.929 10 0 60059 79200.00000 0 10695981.291 -4974624.223 -22606923.649 10 0 60059 80100.00000 0 12665780.103 -3057678.507 -21926477.895 10 0 60059 81000.00000 0 14681519.863 -1356348.373 -20820093.641 10 0 60059 81900.00000 0 16682692.310 101512.514 -19309545.943 10 0 60059 82800.00000 0 18606176.133 1299903.639 -17424413.200 10 0 60059 83700.00000 0 20388768.885 2235084.979 -15201485.646 10 0 60059 84600.00000 0 21969735.166 2915464.329 -12684038.553 10 0 60059 85500.00000 0 23293265.628 3360972.511 -9920985.018 10 0 60060 0.00000 0 24310745.326 3601955.444 -6965925.366 10 0 60060 900.00000 0 24982738.726 3677631.883 -3876109.947 10 0 60060 1800.00000 0 25280608.812 3634182.942 -711339.149 10 0 60060 2700.00000 0 25187706.106 3522555.032 2467184.027 10 0 60060 3600.00000 0 24700077.962 3396068.502 5598023.578 10 0 60060 4500.00000 0 23826670.146 3307932.477 8620682.339 10 0 60060 5400.00000 0 22589012.794 3308769.712 11476754.404 10 0 60060 6300.00000 0 21020403.822 3444254.714 14111037.305 10 0 60060 7200.00000 0 19164623.253 3752963.618 16472583.860 10 0 60060 8100.00000 0 17074230.913 4264525.623 18515674.782 10 0 60060 9000.00000 0 14808516.756 4998153.442 20200694.507 10 0 60060 9900.00000 0 12431187.163 5961614.958 21494894.294 10 0 60060 10800.00000 0 10007881.326 7150690.321 22373028.487 10 0 60060 11700.00000 0 7603618.812 8549139.117 22817851.841 10 0 60060 12600.00000 0 5280282.572 10129181.427 22820467.933 10 0 60060 13500.00000 0 3094240.496 11852475.577 22380521.103 10 0 60060 14400.00000 0 1094203.421 13671554.804 21506226.823 10 0 60060 15300.00000 0 -680591.614 15531665.862 20214238.119 10 0 60060 16200.00000 0 -2201797.032 17372935.337 18529348.549 10 0 60060 17100.00000 0 -3452909.608 19132775.225 16484035.283 10 0 60060 18000.00000 0 -4429723.663 20748428.309 14117848.979 10 0 60060 18900.00000 0 -5140262.538 22159547.075 11476660.472 10 0 60060 19800.00000 0 -5604190.270 23310697.474 8611777.459 10 0 60060 20700.00000 0 -5851727.574 24153680.972 5578947.597 10 0 60060 21600.00000 0 -5922117.756 24649575.292 2437267.323 10 0 60060 22500.00000 0 -5861707.870 24770405.603 -751981.750 10 0 60060 23400.00000 0 -5721727.522 24500373.337 -3926544.843 10 0 60060 24300.00000 0 -5555861.230 23836588.694 -7024428.985 10 0 60060 25200.00000 0 -5417719.575 22789274.282 -9985134.687 10 0 60060 26100.00000 0 -5358318.981 21381430.318 -12750857.975 10 0 60060 27000.00000 0 -5423679.665 19647975.280 -15267637.100 10 0 60060 27900.00000 0 -5652645.982 17634398.653 -17486419.723 10 0 60060 28800.00000 0 -6075023.525 15394983.535 -19364028.302 10 0 60060 29700.00000 0 -6710113.231 12990675.243 -20864004.086 10 0 60060 30600.00000 0 -7565705.181 10486686.858 -21957313.107 10 0 60060 31500.00000 0 -8637574.689 7949943.501 -22622900.884 10 0 60060 32400.00000 0 -9909501.383 5446473.229 -22848086.047 10 0 60060 33300.00000 0 -11353809.564 3038853.949 -22628786.679 10 0 60060 34200.00000 0 -12932405.923 783822.588 -21969576.685 10 0 60060 35100.00000 0 -14598269.795 -1269854.952 -20883572.920 10 0 60060 36000.00000 0 -16297332.365 -3083166.163 -19392157.074 10 0 60060 36900.00000 0 -17970665.205 -4628214.881 -17524539.373 10 0 60060 37800.00000 0 -19556886.092 -5889111.008 -15317173.940 10 0 60060 38700.00000 0 -20994681.463 -6862353.218 -12813038.252 10 0 60060 39600.00000 0 -22225340.443 -7556691.934 -10060791.400 10 0 60060 40500.00000 0 -23195195.330 -7992481.408 -7113827.837 10 0 60060 41400.00000 0 -23857867.773 -8200550.725 -4029244.976 10 0 60060 42300.00000 0 -24176227.983 -8220643.096 -866744.333 10 0 60060 43200.00000 0 -24123986.508 -8099490.371 2312513.147 10 0 60060 44100.00000 0 -23686853.390 -7888604.364 5447076.279 10 0 60060 45000.00000 0 -22863217.241 -7641877.872 8476375.837 10 0 60060 45900.00000 0 -21664316.487 -7413095.778 11341878.358 10 0 60060 46800.00000 0 -20113895.622 -7253460.087 13988200.700 10 0 60060 47700.00000 0 -18247360.303 -7209231.960 16364165.233 10 0 60060 48600.00000 0 -16110465.371 -7319589.003 18423776.658 10 0 60060 49500.00000 0 -13757588.752 -7614787.208 20127102.912 10 0 60060 50400.00000 0 -11249660.999 -8114704.639 21441044.074 10 0 60060 51300.00000 0 -8651834.212 -8827828.492 22339975.113 10 0 60060 52200.00000 0 -6030984.780 -9750729.224 22806250.256 10 0 60060 53100.00000 0 -3453151.440 -10868045.671 22830558.902 10 0 60060 54000.00000 0 -981013.129 -12152984.231 22412125.391 10 0 60060 54900.00000 0 1328490.028 -13568314.025 21558747.404 10 0 60060 55800.00000 0 3426294.498 -15067819.284 20286670.467 10 0 60060 56700.00000 0 5273021.148 -16598150.898 18620298.922 10 0 60060 57600.00000 0 6840377.407 -18101001.872 16591746.728 10 0 60060 58500.00000 0 8112094.403 -19515517.095 14240234.678 10 0 60060 59400.00000 0 9084358.902 -20780837.062 11611343.821 10 0 60060 60300.00000 0 9765720.834 -21838668.558 8756138.172 10 0 60060 61200.00000 0 10176479.480 -22635773.143 5730172.961 10 0 60060 62100.00000 0 10347573.752 -23126266.885 2592407.573 10 0 60060 63000.00000 0 10319023.525 -23273632.135 -595955.050 10 0 60060 63900.00000 0 10137988.766 -23052353.933 -3772678.651 10 0 60060 64800.00000 0 9856530.051 -22449109.517 -6875728.145 10 0 60060 65700.00000 0 9529167.398 -21463458.597 -9844502.124 10 0 60060 66600.00000 0 9210343.315 -20108003.670 -12621037.001 10 0 60060 67500.00000 0 8951900.177 -18408012.747 -15151157.076 10 0 60060 68400.00000 0 8800681.337 -16400520.254 -17385546.210 10 0 60060 69300.00000 0 8796359.708 -14132944.447 -19280718.726 10 0 60060 70200.00000 0 8969587.311 -11661280.509 -20799869.790 10 0 60060 71100.00000 0 9340544.940 -9047946.434 -21913588.513 10 0 60060 72000.00000 0 9917953.435 -6359373.294 -22600420.315 10 0 60060 72900.00000 0 10698587.788 -3663441.781 -22847268.590 10 0 60060 73800.00000 0 11667313.573 -1026872.701 -22649629.299 10 0 60060 74700.00000 0 12797642.820 1487319.686 -22011655.610 10 0 60060 75600.00000 0 14052784.397 3822206.099 -20946053.177 10 0 60060 76500.00000 0 15387143.334 5929054.862 -19473809.896 10 0 60060 77400.00000 0 16748204.841 7769092.887 -17623767.030 10 0 60060 78300.00000 0 18078723.102 9314844.422 -15432041.468 10 0 60060 79200.00000 0 19319122.612 10550994.871 -12941311.411 10 0 60060 80100.00000 0 20410011.373 11474746.914 -10199980.084 10 0 60060 81000.00000 0 21294701.224 12095657.282 -7261234.148 10 0 60060 81900.00000 0 21921630.519 12434963.913 -4182015.027 10 0 60060 82800.00000 0 22246588.739 12524434.024 -1021922.820 10 0 60060 83700.00000 0 22234651.243 12404783.243 2157926.552 10 0 60060 84600.00000 0 21861744.273 12123733.182 5296069.784 10 0 60060 85500.00000 0 21115775.762 11733789.470 8331868.657 99